This is the latest recevied weather packets stored in our database for station/object WI0K. If no packets are shown the sender has not sent any weather packets the latest 10 day(s).
| Time | Temp. | Humidity | Pressure | Rain* | Wind** | Luminosity | Snow |
|---|---|---|---|---|---|---|---|
| 1777731843 | 10° C | 39% | 1022.5 hPa | 0 mm | - | 426 W/m² | - |
| 1777731788 | 9.44° C | 39% | 1022.7 hPa | 0 mm | - | 410 W/m² | - |
| 1777731543 | 9.44° C | 39% | 1022.7 hPa | 0 mm | - | 410 W/m² | - |
| 1777731242 | 9.44° C | 39% | 1022.7 hPa | 0 mm | - | 385 W/m² | - |
| 1777731182 | 9.44° C | 40% | 1022.7 hPa | 0 mm | - | 359 W/m² | - |
| 1777730941 | 9.44° C | 40% | 1022.7 hPa | 0 mm | - | 359 W/m² | - |
| 1777730892 | 8.89° C | 41% | 834.9 hPa | 0 mm | - | 352 W/m² | - |
| 1777730641 | 8.89° C | 41% | 834.9 hPa | 0 mm | - | 352 W/m² | - |
| 1777730591 | 8.89° C | 41% | 834.9 hPa | 0 mm | - | 331 W/m² | - |
| 1777730340 | 8.89° C | 41% | 834.9 hPa | 0 mm | - | 331 W/m² | - |
| 1777730291 | 8.33° C | 44% | 834.9 hPa | 0 mm | - | 313 W/m² | - |
| 1777730040 | 8.33° C | 44% | 834.9 hPa | 0 mm | - | 313 W/m² | - |
| 1777729991 | 8.33° C | 45% | 834.9 hPa | 0 mm | - | 294 W/m² | - |
| 1777729739 | 8.33° C | 45% | 834.9 hPa | 0 mm | - | 294 W/m² | - |
| 1777729438 | 7.78° C | 46% | 834.9 hPa | 0 mm | - | 274 W/m² | - |
| 1777729138 | 7.78° C | 48% | 1022.5 hPa | 0 mm | - | 245 W/m² | - |
| 1777728837 | 7.22° C | 46% | 834.9 hPa | 0 mm | - | 237 W/m² | - |
| 1777728536 | 6.67° C | 48% | 835 hPa | 0 mm | - | 219 W/m² | - |
| 1777728236 | 6.67° C | 49% | 834.9 hPa | 0 mm | - | 201 W/m² | - |
| 1777727935 | 6.11° C | 49% | 834.9 hPa | 0 mm | - | 184 W/m² | - |
| 1777727634 | 5.56° C | 50% | 834.8 hPa | 0 mm | - | 167 W/m² | - |
| 1777727333 | 5.56° C | 51% | 834.8 hPa | 0 mm | - | 150 W/m² | - |
| 1777727032 | 5° C | 51% | 1022.4 hPa | 0 mm | - | 128 W/m² | - |
| 1777726732 | 4.44° C | 52% | 834.8 hPa | 0 mm | - | 118 W/m² | - |
| 1777726431 | 4.44° C | 53% | 834.7 hPa | 0 mm | - | 54 W/m² | - |
* Rain latest hour (hover to see other rain measurements)
** Current wind speed in m/s (hover to see current wind gust speed)